CW7283 Weather Reports


time (UTC)temp
F
wind
direction
speed
knots
gust
knots
rain 1hr
in
rain 24hr
in
rain mn
in
humidity
%
barometer
mb
20260504234837 50 11 0.9 7.0 0.00 0.00 0.00 46 1012.1
20260504233339 49 305 1.7 6.1 0.00 0.00 0.00 49 1012.0
20260504231850 49 5 0.9 8.7 0.00 0.00 0.00 49 1012.0
20260504230336 49 321 0.0 5.2 0.00 0.00 0.00 49 1012.1
20260504223322 49 284 0.9 5.2 0.00 0.00 0.00 48 1012.1
20260504221833 50 18 0.9 7.0 0.00 0.00 0.00 48 1012.0
20260504220340 50 28 0.9 5.2 0.00 0.00 0.00 47 1012.2
20260504214849 50 5 0.0 3.5 0.00 0.00 0.00 51 1012.2
20260504213347 49 313 0.9 7.0 0.00 0.00 0.00 50 1012.4
20260504211825 49 17 0.9 4.3 0.00 0.00 0.00 49 1012.4
20260504210329 49 14 0.0 6.1 0.00 0.00 0.00 48 1012.5
20260504204849 48 289 0.9 4.3 0.00 0.00 0.00 51 1012.8
20260504203412 46 333 0.0 2.6 0.00 0.00 0.00 53 1013.0
20260504201842 46 323 0.9 6.1 0.00 0.00 0.00 50 1012.9
20260504200356 47 261 0.9 6.1 0.00 0.00 0.00 51 1013.0
20260504194847 47 15 0.0 7.0 0.00 0.00 0.00 51 1013.0
20260504193334 47 24 0.9 7.0 0.00 0.00 0.00 50 1013.0
20260504191837 47 13 0.9 5.2 0.00 0.00 0.00 50 1012.9
20260504190351 48 9 0.9 6.1 0.00 0.00 0.00 51 1013.0
20260504184847 48 332 1.7 9.6 0.00 0.00 0.00 54 1013.0
20260504183338 48 311 3.5 6.1 0.00 0.00 0.00 53 1013.0
20260504181826 47 25 1.7 7.8 0.00 0.00 0.00 55 1013.3
20260504180341 47 14 0.9 5.2 0.00 0.00 0.00 55 1013.4
20260504174839 46 348 0.9 7.0 0.00 0.00 0.00 56 1013.5
20260504173336 46 272 1.7 6.1 0.00 0.00 0.00 56 1013.6
20260504171839 45 302 1.7 7.0 0.00 0.00 0.00 56 1013.7
20260504170332 45 270 1.7 6.1 0.00 0.00 0.00 58 1013.7
20260504160354 44 5 0.9 5.2 0.00 0.00 0.00 60 1014.0
20260504150348 43 5 0.0 6.1 0.00 0.00 0.00 64 1014.2
20260504140335 43 321 0.0 1.7 0.00 0.00 0.00 63 1014.2
20260504130336 43 5 0.0 1.7 0.00 0.00 0.00 61 1013.7
20260504110339 39 306 0.0 1.7 0.00 0.00 0.00 71 1010.7
20260504100348 39 63 0.0 0.0 0.00 0.00 0.00 72 1008.1
20260504081829 43 148 0.0 0.0 0.00 0.00 0.00 68 1007.2
20260504080413 44 141 0.0 0.0 0.00 0.00 0.00 68 1007.3
20260504070402 45 300 0.0 0.0 0.00 0.00 0.00 62 1007.4
20260504050348 46 346 0.0 0.0 0.00 0.00 0.00 66 1007.1
20260504044844 48 319 0.0 0.0 0.00 0.00 0.00 63 1006.9
20260504043333 49 198 0.0 0.0 0.00 0.00 0.00 62 1007.0
20260504041852 50 198 0.0 0.0 0.00 0.00 0.00 60 1007.1
20260504040327 50 198 0.0 0.0 0.00 0.00 0.00 60 1007.1
20260504034825 51 219 0.0 0.0 0.00 0.00 0.00 59 1007.1
20260504033345 52 203 0.0 0.0 0.00 0.00 0.00 56 1007.1
20260504031838 54 173 0.0 1.7 0.00 0.00 0.00 53 1007.1
20260504030329 55 221 0.0 1.7 0.00 0.00 0.00 52 1007.1
20260504024852 55 217 0.0 1.7 0.00 0.00 0.00 52 1007.1
20260504023349 56 229 0.0 1.7 0.00 0.00 0.00 50 1007.0
20260504021900 59 215 0.0 1.7 0.00 0.00 0.00 47 1007.0
20260504020332 61 227 0.0 0.0 0.00 0.00 0.00 42 1007.1
20260504014841 63 227 0.0 0.0 0.00 0.00 0.00 41 1007.1
20260504013336 64 301 0.0 1.7 0.00 0.00 0.00 39 1007.1
20260504011825 65 326 0.0 1.7 0.00 0.00 0.00 36 1007.3
20260504010329 65 31 0.0 1.7 0.00 0.00 0.00 34 1007.6
20260504004858 65 360 0.9 4.3 0.00 0.00 0.00 35 1007.7
20260504003326 66 19 0.0 2.6 0.00 0.00 0.00 33 1007.7
20260504001826 68 355 2.6 5.2 0.00 0.00 0.00 31 1007.9
20260504000412 70 323 0.0 1.7 0.00 0.00 0.00 30 1008.2